Home > Time Zones > World Clock > Weather > India > Siwan > Past weeks

Flag for India Weather past 2 weeks in Siwan, Bihar, India

Now
77 °F

Haze.


Feels Like: 79 °F
Forecast: 76 / 94 °F
Wind: 10 mph from Northeast

Location: Varanasi / Babatpur

Current Time: Apr 26, 2015 at 3:20:22 AM

Latest Report: Apr 26, 2015 at 12:00 AM


Visibility: 2 mi

Pressure: 29.83 "Hg

Humidity: 69%

Dew point: 66 °F

Location of SiwanLocation

Historic Weather in Siwan — Graph

°F

Siwan temperature yesterday

Maximum temperature yesterday: 91 °F (at 3:00 PM)
Minimum temperature yesterday: 73 °F (at 4:00 AM)
Average temperature yesterday: 81 °F

Past Weeks' High & Low Weather Summary

 TemperatureHumidityPressure
High104 °F (Apr 19, 1:00 PM)100% (Apr 12, 11:00 PM)30.12 "Hg (Apr 12, 11:00 PM)
Low70 °F (Apr 15, 12:00 AM)18% (Apr 23, 12:00 PM)29.53 "Hg (Apr 18, 4:00 PM)
Average85 °F55%29.78 "Hg
* Reported Midnight between Apr 10 and Apr 11 — Midnight between Apr 25 and Apr 26, Siwan, Weather by CustomWeather, © 2015

Note: Actual official high and low records may vary slightly from our data, if they occured in-between our weather recording intervals... More about our weather records

Advertising

Siwan weather history for previous 24 hours

 ConditionsComfort  
Time TempWeatherWind HumidityBarometerVisibility
12:00 AM
Sun, Apr 26
77 °FHaze.10 mph69%29.83 "Hg2 mi
11:00 PM
Sat, Apr 25
77 °FHaze.10 mph69%29.83 "Hg2 mi
10:00 PM77 °FHaze.13 mph69%29.83 "Hg2 mi
9:00 PM77 °FHaze.13 mph69%29.83 "Hg2 mi
8:00 PM79 °FHaze.13 mph61%29.80 "Hg2 mi
7:00 PM79 °FHaze.14 mph61%29.80 "Hg3 mi
6:00 PM86 °FHaze.16 mph40%29.74 "Hg3 mi
5:00 PM90 °FHaze.17 mph43%29.74 "Hg3 mi
4:00 PM91 °FHaze.7 mph38%29.74 "Hg3 mi
3:00 PM91 °FHaze.20 mph38%29.77 "Hg3 mi
11:00 AM86 °FScattered clouds.18 mph43%29.86 "Hg3 mi
9:00 AM79 °FScattered clouds.17 mph58%29.86 "Hg3 mi
8:00 AM77 °FScattered clouds.17 mph57%29.86 "Hg2 mi
7:00 AM75 °FScattered clouds.8 mph61%29.83 "Hg2 mi
6:00 AM73 °FScattered clouds.12 mph65%29.80 "Hg2 mi
4:00 AM73 °FHaze.9 mph69%29.83 "Hg2 mi
Weather by CustomWeather, © 2015

See weather overviewHow to use our weather pages